DW8462 Weather Reports


time (UTC)temp
F
wind
direction
speed
knots
gust
knots
rain 1hr
in
rain 24hr
in
rain mn
in
humidity
%
barometer
mb
20260906021533 73 360 0.0 0.0 0.00 0.00 0.00 87 1014.2
20260906020048 73 360 0.0 0.0 0.00 0.00 0.00 87 1014.2
20260906014533 73 38 0.0 0.0 0.00 0.00 0.00 88 1014.0
20260906013027 73 360 0.0 0.0 0.00 0.00 0.00 90 1013.9
20260906011526 72 360 0.0 0.0 0.00 0.00 0.00 90 1013.8
20260906010023 73 360 0.0 0.0 0.00 0.00 0.00 90 1013.7
20260906004519 73 360 0.0 0.0 0.00 0.00 0.00 89 1013.3
20260906003023 74 360 0.0 0.0 0.00 0.00 0.00 88 1013.0
20260906001515 75 360 0.0 0.0 0.00 0.00 0.00 87 1013.0
20260906000014 76 360 0.0 0.0 0.00 0.00 0.00 86 1013.1
20260905234545 77 360 0.0 0.0 0.00 0.00 0.00 84 1013.0
20260905233045 78 360 0.0 0.0 0.00 0.00 0.00 82 1012.9
20260905231537 79 360 0.0 0.0 0.00 0.00 0.00 83 1012.5
20260905230037 79 360 0.0 0.0 0.00 0.00 0.00 81 1012.5
20260905224536 80 360 0.0 0.0 0.00 0.00 0.00 80 1012.3
20260905223040 81 360 0.0 0.0 0.00 0.00 0.00 79 1012.2
20260905221543 82 360 0.0 0.0 0.00 0.00 0.00 78 1012.2
20260905220034 83 360 0.0 0.0 0.00 0.00 0.00 77 1012.0
20260905214532 84 360 0.0 0.0 0.00 0.00 0.00 75 1011.9
20260905213034 84 360 0.0 0.0 0.00 0.00 0.00 74 1011.8
20260905211541 85 360 0.0 0.0 0.00 0.00 0.00 72 1011.7
20260905210029 86 360 0.0 0.0 0.00 0.00 0.00 73 1011.7
20260905204529 86 360 0.0 0.0 0.00 0.00 0.00 72 1011.8
20260905203032 87 360 0.0 0.0 0.00 0.00 0.00 72 1011.7
20260905201525 88 360 0.0 0.0 0.00 0.00 0.00 70 1011.7
20260905200035 89 5 0.0 0.0 0.00 0.00 0.00 71 1011.7
20260905194524 89 360 0.0 0.0 0.00 0.00 0.00 70 1011.7
20260905193024 90 360 0.0 0.0 0.00 0.00 0.00 70 1011.8
20260905191521 90 9 0.0 0.0 0.00 0.00 0.00 71 1011.8
20260905190020 90 360 0.0 0.0 0.00 0.00 0.00 71 1011.8
20260905184521 89 5 0.0 0.0 0.00 0.00 0.00 74 1012.0
20260905183019 89 360 0.0 0.0 0.00 0.00 0.00 74 1012.1
20260905181517 89 360 0.0 0.0 0.00 0.00 0.00 74 1012.1
20260905180016 90 360 0.0 0.0 0.00 0.00 0.00 74 1012.0
20260905174515 91 360 0.0 0.0 0.00 0.00 0.00 75 1012.0
20260905173014 90 360 0.0 0.0 0.00 0.00 0.00 74 1012.1
20260905171557 90 23 0.0 0.0 0.00 0.00 0.00 74 1012.1
20260905170043 89 9 0.0 0.0 0.00 0.00 0.00 75 1012.2
20260905164541 89 360 0.0 0.0 0.00 0.00 0.00 75 1012.4
20260905163037 89 5 0.0 0.0 0.00 0.00 0.00 74 1012.4
20260905161540 88 349 0.0 0.0 0.00 0.00 0.00 77 1012.4
20260905160044 88 360 0.0 0.0 0.00 0.00 0.00 79 1012.3
20260905154546 87 26 0.0 0.0 0.00 0.00 0.00 80 1012.4
20260905153029 87 23 0.0 0.0 0.00 0.00 0.00 80 1012.3
20260905151530 87 355 0.0 0.0 0.00 0.00 0.00 79 1012.2
20260905150025 87 360 0.0 0.0 0.00 0.00 0.00 82 1012.2
20260905144533 86 346 0.0 0.0 0.00 0.00 0.00 81 1012.0
20260905143017 85 17 0.0 0.0 0.00 0.00 0.00 82 1011.9
20260905141515 84 24 0.0 0.0 0.00 0.00 0.00 84 1011.8
20260905140010 82 27 0.0 0.0 0.00 0.00 0.00 87 1012.1
20260905134507 81 27 0.0 0.0 0.00 0.00 0.00 90 1012.3
20260905133101 80 30 0.0 0.0 0.00 0.00 0.00 94 1012.1
20260905131602 78 28 0.0 0.0 0.00 0.00 0.00 95 1011.9
20260905130058 77 28 0.0 0.0 0.00 0.00 0.00 95 1011.8
20260905124600 76 28 0.0 0.0 0.00 0.00 0.00 95 1012.0
20260905124556 76 28 0.0 0.0 0.00 0.00 0.00 95 1011.9
20260905123052 76 28 0.0 0.0 0.00 0.00 0.00 95 1011.7
20260905121552 75 28 0.0 0.0 0.00 0.00 0.00 95 1011.7
20260905120051 75 28 0.0 0.0 0.00 0.00 0.00 95 1011.6
20260905114607 74 28 0.0 0.0 0.00 0.00 0.00 94 1011.4
20260905113047 74 28 0.0 0.0 0.00 0.00 0.00 94 1011.4
20260905111552 75 28 0.0 0.0 0.00 0.00 0.00 94 1011.3
20260905110046 75 28 0.0 0.0 0.00 0.00 0.00 94 1011.1
20260905104550 74 28 0.0 0.0 0.00 0.00 0.00 93 1011.0
20260905103018 75 167 0.0 0.0 0.00 0.00 0.00 91 1011.1
20260905101512 76 167 0.0 0.0 0.00 0.00 0.00 91 1011.2
20260905100009 77 167 0.0 0.0 0.00 0.00 0.00 91 1011.1
20260905094509 77 167 0.0 0.0 0.00 0.00 0.00 91 1011.1
20260905093008 77 167 0.0 0.0 0.00 0.00 0.00 91 1011.0
20260905091508 77 167 0.0 0.0 0.00 0.00 0.00 92 1011.0
20260905090005 77 167 0.0 0.0 0.00 0.00 0.00 92 1011.1
20260905084511 77 167 0.0 0.0 0.00 0.00 0.00 92 1011.1
20260905083005 77 167 0.0 0.0 0.00 0.00 0.00 92 1011.1
20260905081504 77 167 0.0 0.0 0.00 0.00 0.00 92 1011.1
20260905080002 77 167 0.0 0.0 0.00 0.00 0.00 93 1011.1
20260905074501 76 167 0.0 0.0 0.00 0.00 0.00 93 1011.1
20260905073102 76 167 0.0 0.0 0.00 0.00 0.00 94 1011.1
20260905071604 76 167 0.0 0.0 0.00 0.00 0.00 93 1011.0
20260905070055 76 167 0.0 0.0 0.00 0.00 0.00 92 1011.2
20260905064556 77 167 0.0 0.0 0.00 0.00 0.00 92 1011.1
20260905063050 77 167 0.0 0.0 0.00 0.00 0.00 92 1011.3
20260905061607 77 167 0.0 0.0 0.00 0.00 0.00 92 1011.4
20260905060046 77 167 0.0 0.0 0.00 0.00 0.00 92 1011.6
20260905054544 78 166 0.0 0.0 0.00 0.00 0.00 91 1011.6
20260905053042 79 166 0.0 0.0 0.00 0.00 0.00 91 1011.7
20260905051544 78 167 0.0 0.0 0.00 0.00 0.00 92 1011.7
20260905050037 78 166 0.0 0.0 0.00 0.00 0.00 93 1011.8
20260905044536 78 166 0.0 0.0 0.00 0.00 0.00 92 1011.8
20260905043103 79 166 0.0 0.0 0.00 0.00 0.00 92 1011.9
20260905041535 79 166 0.0 0.0 0.00 0.00 0.00 92 1011.9
20260905040040 79 166 0.0 0.0 0.00 0.00 0.00 92 1012.0
20260905034533 79 166 0.0 0.0 0.00 0.00 0.00 93 1011.9
20260905033038 79 166 0.0 0.0 0.00 0.00 0.00 92 1012.0
20260905031530 79 166 0.0 0.0 0.00 0.00 0.00 91 1012.1
20260905030028 80 166 0.0 0.0 0.00 0.00 0.00 92 1012.0
20260905024527 80 166 0.0 0.0 0.00 0.00 0.00 92 1011.9
20260905023029 80 166 0.0 0.0 0.00 0.00 0.00 91 1011.7